Погода в Каире

Египет     30°00′26″N   31°13′50″E
темп.,
°C
ветер,
м/с
пор.,
м/с
влажн.,
%
обл.,
%
осадки,
мм/ч
давл.,
гПа
погр.,
м
17 апреля, сб
сб1723:00+23всв510280 0.0 1014263
02:00+22св49285 0.0 1014249
05:00+21св310270 0.0 1013241
08:00+26всв510170 0.0 1014406
11:00+33св7890 0.0 10141166
14:00+35св7875 0.0 10121930
17:00+34св7895 0.0 10111344
20:00+28св710200 0.0 1014354
18 апреля, вс
вс1823:00+25св711310 0.0 1015305
02:00+23всв512350 0.0 1013262
05:00+24всв38220 0.0 1013163
08:00+30юв26140 0.0 1013270
11:00+38ююз3580 0.0 10121136
14:00+40зюз1350 0.0 10101751
17:00+40ссв2250 0.0 1009847
20:00+34вюв02949 0.0 101022
19 апреля, пн
пн1923:00+32юв221381 0.0 101123
02:00+31ю4615100 0.0 101094
05:00+29ю4716100 0.0 1010108
08:00+32ю61016100 0.0 1010332
11:00+38ююз7810100 0.0 10101325
14:00+41юз798100 0.0 10083690
17:00+39зюз779100 0.0 10071760
20:00+27ссз8935100 0.0 1010488
20 апреля, вт
вт2023:00+22ссз8955100 0.0 1013523
02:00+20с81263100 0.0 1013558
05:00+19с710655 0.0 1014525
08:00+20с79500 0.0 1016651
11:00+27ссв77240 0.0 10151114
14:00+32с67160 0.0 10131719
17:00+31с98195 0.0 10131802
20:00+22ссв910370 0.0 1017893
21 апреля, ср
ср2123:00+19ссв79515 0.0 1018566
02:00+17ссв69645 0.0 1017488
05:00+16ссв69701 0.0 1018448
08:00+18ссв79598 0.0 1018640
11:00+25ссв772637 0.0 10181056
14:00+30ссв77145 0.0 10151613
17:00+28св991811 0.0 10151451
20:00+21св9123586 0.0 1018536